Regional Weather Roundup
Issued by NWS

Home | Current Version | Previous Version | Text Only | Print | Product List | Glossary Off
Versions: 1 2 3 4 5 6 7 8 9 10 11 12 13 14 15 16 17 18 19 20 21 22 23 24 25 26 27 28 29 30 31 32 33 34 35 36 37 38 39 40 41 42 43 44 45 46 47 48 49 50

000
ASUS43 KMPX 262101
RWRMN
WEATHER ROUNDUP FOR MINNESOTA
NATIONAL WEATHER SERVICE TWIN CITIES/CHANHASSEN MN
400 PM CDT THU MAY 26 2016


NOTE: "FAIR" INDICATES FEW OR NO CLOUDS BELOW 12,000 FEET WITH NO
SIGNIFICANT WEATHER AND/OR OBSTRUCTIONS TO VISIBILITY. N/A MEANS
CURRENT SKY AND/OR WEATHER CONDITIONS ARE NOT AVAILABLE.

MNZ060>063-068>070-262200-
   Twin Cities Metro

CITY           SKY/WX    TMP DP  RH WIND       PRES   REMARKS
TWIN CITIES    MOSUNNY   80  50  34 W15G22    29.81S
ST PAUL        MOSUNNY   79  50  36 SW15      29.80F
CRYSTAL        MOSUNNY   80  50  34 W9G20     29.79F
BLAINE         MOSUNNY   81  52  36 W15G21    29.80F
EDEN PRAIRIE   MOSUNNY   80  51  36 W12       29.80F
SOUTH ST PAUL  SUNNY     80  46  30 W13       29.80S
LAKE ELMO      FAIR      79  54  41 W13       29.82S
$$
MNZ001>005-007-008-013>017-022>024-027-028-262200-
   Northwest Minnesota

CITY           SKY/WX    TMP DP  RH WIND       PRES   REMARKS
BEMIDJI        PTSUNNY   73  53  49 W14       29.77S
HALLOCK        CLOUDY    66  57  72 W15       29.71S
ROSEAU         MOSUNNY   70  57  64 W16G23    29.72R
WARROAD        PTSUNNY   70  57  64 SW15G22   29.72S
THIEF RVR FALL PTSUNNY   68  54  60 W18       29.77S
CROOKSTON      MOSUNNY   70  57  64 W15       29.76F
FOSSTON        SUNNY     68  55  64 SW16G23   29.78S
DETROIT LAKES  CLOUDY    70  52  52 W10G17    29.82S
MOORHEAD       MOSUNNY   72  57  60 W10       29.79S
PARK RAPIDS    MOSUNNY   75  52  44 W16       29.79S
MAHNOMEN       FAIR      69  57  66 SW17      29.78F
$$
MNZ006-009>011-018-025>026-262200-
   North Central Minnesota

CITY           SKY/WX    TMP DP  RH WIND       PRES   REMARKS
BAUDETTE       PTSUNNY   72  55  55 W15G21    29.72S
FLAG ISLAND    PTSUNNY   66  54  63 SW14      29.70S
INTL FALLS     SUNNY     75  51  43 W6G16     29.73S
WASKISH        MOSUNNY   68  57  68 W9        29.75S
BIG FORK       MOSUNNY   75  54  46 SW9       29.75R
LONGVILLE      MOSUNNY   75  54  46 SW10G18   29.77S
GRAND RAPIDS   PTSUNNY   74  51  44 SE7       29.77S
CRANE LAKE     SUNNY     70  54  56 S3        29.77F
ORR            MOSUNNY   72  52  49 CALM      29.74F
COOK           SUNNY     70  55  60 SE7       29.78F
WALKER         MOCLDY    72  54  54 SW15      29.77R
$$
MNZ012-019>021-037-262200-
   Northeast Minnesota

CITY           SKY/WX    TMP DP  RH WIND       PRES   REMARKS
DULUTH         MOSUNNY   69  57  65 SE5       29.79F
ELY            PTSUNNY   72  54  53 SW6       29.77S
HIBBING        MOSUNNY   70  57  63 CALM      29.78S
EVELETH        SUNNY     70  54  56 CALM      29.80F
DULUTH HARBOR  CLOUDY    48  46  93 E9        29.82F
TWO HARBORS    CLOUDY    63  55  77 CALM      29.79F
SILVER BAY     CLOUDY    57  55  94 E3        29.80F
GRAND MARAIS     N/A     47  44  90 CALM      29.81F
G MARAIS ARPRT CLOUDY    59  52  77 S3        29.82S
$$
MNZ029>031-032-039>041-046>048-054>057-064-262200-
   West Central Minnesota

CITY           SKY/WX    TMP DP  RH WIND       PRES   REMARKS
FERGUS FALLS   CLOUDY    75  48  38 W15G24    29.76F
WHEATON        PTSUNNY   79  50  36 W10G20    29.80F
MORRIS         CLOUDY    79  46  31 W17G24    29.79F
ALEXANDRIA     MOSUNNY   75  43  31 W14G23    29.82F
ELBOW LAKE     FAIR      76  48  37 NW15      29.81F
WADENA         SUNNY     73  48  40 W14G24    29.80F
GLENWOOD       MOSUNNY   75  45  33 W12G23    29.81F
APPLETON       MOSUNNY   79  43  27 W15       29.80S
ORTONVILLE     CLOUDY    77  46  33 W12       29.81S
MADISON        CLOUDY    77  46  33 SW9G17    29.82S
WILLMAR        FAIR      81  45  28 W20G26    29.82S
$$
MNZ033>034-036-042>043-049>051-058-059-262200-
   Central Minnesota

CITY           SKY/WX    TMP DP  RH WIND       PRES   REMARKS
ST CLOUD       CLOUDY    80  47  31 W18       29.79F
SAUK CENTRE    FAIR      76  48  37 W10G17    29.80F
PAYNESVILLE    MOSUNNY   79  42  27 W13       29.82S
AITKIN         MOSUNNY   79  43  27 SW10G20   29.77S
PINE RIVER     MOSUNNY   73  54  49 W13G18    29.83S
BRAINERD       SUNNY     76  47  35 W16G24    29.79F
STAPLES        SUNNY     73  46  38 W14       29.80F
LONG PRAIRIE   FAIR      73  48  40 W12G20    29.82F
LITTLE FALLS   SUNNY     75  45  33 W9G18     29.80F
LITCHFIELD     MOSUNNY   79  46  31 W12G17    29.82F
BUFFALO        MOSUNNY   77  52  41 W7        29.81F
MAPLE LAKE     MOSUNNY   77  56  48 W8        29.82F
HUTCHINSON     SUNNY     79  55  42 W10       29.83F
$$
MNZ037-044-045-052-053-262200-
   East Central Minnesota

CITY           SKY/WX    TMP DP  RH WIND       PRES   REMARKS
PRINCETON      MOSUNNY   81  52  36 SW12G17   29.79F
MORA           SUNNY     75  52  43 W10G18    29.80F
CAMBRIDGE        N/A     81  57  44 W9G20     29.77F
RUSH CITY      SUNNY     78  54  44 W10G16    29.78F
MOOSE LAKE     SUNNY     77  50  38 SW13      29.76S
HINCKLEY       FAIR      79  57  47 SW14G20   29.78F
CLOQUET        SUNNY     72  57  60 SE5       29.78F
MCGREGOR       MOSUNNY   77  54  44 W9        29.78S
$$
MNZ071>073-080-081-089-090-097-098-262200-
   Southwest Minnesota

CITY           SKY/WX    TMP DP  RH WIND       PRES   REMARKS
MONTEVIDEO     SUNNY     84  45  24 N9        29.83S
GRANITE FALLS  SUNNY     82  48  29 W13G20    29.83S
CANBY          CLOUDY    78  53  41 SW8       29.85S
MARSHALL       PTSUNNY   78  50  37 W12       29.83F
REDWOOD FALLS  MOSUNNY   79  48  33 W7        29.81F
OLIVIA         SUNNY     77  46  33 W14G22    29.82S
PIPESTONE      MOSUNNY  N/A N/A N/A CALM      29.84F
WINDOM         SUNNY     79  48  34 CALM      29.82F
WORTHINGTON    SUNNY     75  54  47 SW5       29.83F
JACKSON        SUNNY     77  46  33 CALM      29.83F
TRACY          CLOUDY    77  50  38 W5        29.83F
SLAYTON        MOSUNNY   76  46  34 W6        29.85F
$$
MNZ065>067-074>077-082>085-091>093-262200-
   South Central Minnesota

CITY           SKY/WX    TMP DP  RH WIND       PRES   REMARKS
MANKATO        SUNNY     77  50  38 W8        29.83F
NEW ULM        MOSUNNY   77  46  33 W9        29.82F
ST JAMES       SUNNY     73  48  40 CALM      29.82F
FAIRMONT       SUNNY     79  46  31 SW3       29.81F
GLENCOE        MOSUNNY   79  54  41 W9        29.82F
FARIBAULT      MOSUNNY   79  54  41 W8        29.84F
OWATONNA       SUNNY     79  50  36 SW9       29.83F
WASECA         SUNNY     77  52  41 W10       29.85F
ALBERT LEA     SUNNY     79  54  41 W7        29.83F
$$
MNZ078>079-086>088-094>096-262200-
   Southeast Minnesota

CITY           SKY/WX    TMP DP  RH WIND       PRES   REMARKS
ROCHESTER      SUNNY     77  59  53 W12       29.84F
RED WING       SUNNY     82  46  28 W12       29.80F
STANTON        SUNNY     79  54  41 W6        29.81F
DODGE CENTER   SUNNY     79  52  38 W12G18    29.84F
WINONA         MOSUNNY   81  55  41 W9        29.82F
AUSTIN         SUNNY     79  54  41 W9        29.83F
PRESTON        SUNNY     77  59  52 SW8       29.85F
$$
ABBREVIATIONS USED IN REMARKS
   TC - TEMPERATURES IN CELSIUS
  WCI - WIND CHILL INDEX
   HX - HEAT INDEX
  VSB - VISIBILITY
$$




USA.gov is the U.S. government's official web portal to all federal, state and local government web resources and services.